sat.trackr.live / text

‹ back to catalog

IRIDIUM 113

NORAD 42803 · 2017-039A

PAYLOAD ACTIVE UNKNOWN

§ Identity

Operator
Country
US
Launch date
2017-06-25
Launch site
AFWTR
Launch vehicle
Mass (kg)
RCS (m²)

Purposes: comms

External: N2YO · Heavens-Above · Gunter

§ Orbital elements

Epoch: 2026-05-25T00:10:43.339584Z

Period
100.40 min
Inclination
86.3962°
Eccentricity
0.0002322
Mean motion
14.34217503 rev/d
Perigee alt
776.0 km
Apogee alt
779.3 km
Semi-major
7,155.8 km
B*
8.3998e-6
RAAN
331.8723°
Arg perigee
91.8512°
Mean anomaly
268.2950°
Rev number
46,786

§ Raw data

IRIDIUM 1131 42803U 17039A   26145.00744606  .00000043  00000+0  83998-5 0  99902 42803  86.3962 331.8723 0002322  91.8512 268.2950 14.34217503467868

JSON: /api/v1/satellites/42803 · /tle

For live sub-satellite position, see the globe view (requires WebGL).

§ Visibility from observer

Set your observer location to see the next 7 days of passes ≥ 10°. The values pass through the URL so the page stays shareable.

No JS? Fill the form by hand. The geolocation button needs JavaScript.

§ Radio — SatNOGS DB

ModeDescriptionDownlinkUplink
FM Iridium 113 1.623 GHz

1 transmitter · refreshed weekly from db.satnogs.org